QPF
0.00 0.00 0.00 0.00 0.01 0.00 0.00 0.00 0.00 0.00 0.02 0.01 0.01 0.02 0.02 0.01 0.01 0.01 0.01 0.01 0.01 0.01 0.01 0.01 0.02 0.02 0.02 0.02 0.02 0.02 0.01 0.01 0.01 0.01 0.01 0.02 0.01 0.01 0.01 0.01 0.01 0.02 0.02 0.02
0.00 0.00 0.00 0.00 0.00 0.00 0.00 0.00 0.00 0.00 0.00 0.00 0.00 0.01 0.02 0.01 0.01 0.00 0.01 0.01 0.01 0.01 0.01 0.01 0.00 0.01 0.02 0.03 0.02 0.02 0.02 0.02 0.02 0.01 0.02 0.02 0.01 0.01 0.01 0.00 0.01 0.01 0.01 0.02
0.00 0.00 0.00 0.00 0.00 0.00 0.00 0.00 0.00 0.00 0.00 0.00 0.01 0.04 0.05 0.04 0.01 0.01 0.01 0.01 0.00 0.00 0.00 0.00 0.00 0.00 0.01 0.02 0.03 0.03 0.03 0.02 0.02 0.01 0.01 0.02 0.01 0.01 0.01 0.01 0.01 0.01 0.01 0.01
0.00 0.00 0.00 0.00 0.00 0.00 0.00 0.00 0.00 0.00 0.00 0.00 0.00 0.02 0.05 0.03 0.04 0.02 0.00 0.00 0.00 0.00 0.00 0.00 0.00 0.00 0.01 0.02 0.02 0.02 0.02 0.01 0.01 0.01 0.02 0.02 0.01 0.01 0.01 0.01 0.01 0.01 0.01 0.02
0.00 0.00 0.01 0.00 0.00 0.00 0.00 0.00 0.00 0.00 0.00 0.00 0.00 0.00 0.02 0.05 0.04 0.01 0.00 0.00 0.00 0.00 0.00 0.00 0.00 0.00 0.01 0.02 0.02 0.02 0.02 0.01 0.01 0.02 0.02 0.02 0.02 0.02 0.02 0.02 0.02 0.03 0.03 0.03
0.00 0.01 0.01 0.03 0.01 0.00 0.00 0.01 0.00 0.00 0.00 0.00 0.00 0.00 0.03 0.07 0.04 0.00 0.00 0.00 0.00 0.00 0.00 0.00 0.00 0.00 0.01 0.01 0.02 0.04 0.06 0.02 0.02 0.02 0.02 0.03 0.03 0.04 0.04 0.04 0.03 0.03 0.03 0.03
0.01 0.01 0.02 0.01 0.01 0.00 0.01 0.03 0.00 0.00 0.00 0.00 0.00 0.01 0.02 0.06 0.05 0.01 0.00 0.00 0.00 0.00 0.00 0.00 0.00 0.01 0.02 0.04 0.03 0.03 0.04 0.03 0.04 0.03 0.03 0.04 0.05 0.06 0.06 0.05 0.04 0.03 0.03 0.03
0.01 0.02 0.02 0.01 0.01 0.01 0.02 0.02 0.01 0.01 0.01 0.01 0.01 0.01 0.01 0.03 0.04 0.01 0.00 0.00 0.00 0.00 0.00 0.00 0.01 0.02 0.03 0.04 0.04 0.04 0.03 0.03 0.03 0.03 0.06 0.09 0.09 0.08 0.08 0.07 0.06 0.05 0.05 0.04
0.03 0.03 0.02 0.02 0.02 0.02 0.01 0.01 0.01 0.01 0.01 0.02 0.02 0.02 0.02 0.02 0.02 0.01 0.01 0.00 0.00 0.00 0.00 0.01 0.01 0.02 0.02 0.03 0.03 0.03 0.03 0.03 0.03 0.05 0.05 0.06 0.05 0.05 0.04 0.04 0.04 0.04 0.05 0.04
0.04 0.02 0.03 0.02 0.02 0.02 0.01 0.02 0.01 0.01 0.01 0.01 0.01 0.02 0.03 0.02 0.02 0.01 0.01 0.00 0.00 0.00 0.01 0.01 0.01 0.02 0.02 0.03 0.03 0.03 0.04 0.03 0.03 0.04 0.04 0.05 0.04 0.04 0.03 0.03 0.04 0.05 0.06 0.06
0.04 0.02 0.02 0.02 0.02 0.02 0.01 0.01 0.01 0.01 0.01 0.01 0.01 0.01 0.02 0.02 0.02 0.02 0.01 0.00 0.00 0.01 0.01 0.01 0.01 0.01 0.02 0.02 0.03 0.03 0.04 0.04 0.04 0.04 0.04 0.04 0.03 0.03 0.02 0.02 0.02 0.03 0.06 0.09
0.04 0.03 0.04 0.04 0.03 0.02 0.01 0.01 0.01 0.01 0.01 0.02 0.01 0.01 0.01 0.02 0.02 0.01 0.01 0.01 0.01 0.01 0.01 0.01 0.01 0.01 0.01 0.02 0.02 0.04 0.04 0.04 0.04 0.03 0.03 0.02 0.02 0.02 0.02 0.01 0.01 0.01 0.02 0.04
0.03 0.02 0.02 0.02 0.03 0.02 0.01 0.01 0.01 0.01 0.01 0.02 0.01 0.01 0.02 0.03 0.03 0.02 0.02 0.01 0.01 0.01 0.01 0.01 0.01 0.01 0.01 0.02 0.03 0.04 0.04 0.04 0.03 0.02 0.02 0.02 0.02 0.01 0.01 0.01 0.01 0.02 0.02 0.03
0.02 0.01 0.01 0.01 0.02 0.01 0.01 0.01 0.01 0.02 0.02 0.02 0.01 0.02 0.02 0.02 0.02 0.02 0.02 0.02 0.01 0.01 0.01 0.01 0.01 0.01 0.01 0.02 0.04 0.04 0.04 0.04 0.03 0.02 0.02 0.02 0.02 0.01 0.01 0.01 0.01 0.02 0.03 0.04
0.02 0.01 0.01 0.01 0.01 0.01 0.02 0.01 0.01 0.03 0.06 0.04 0.02 0.02 0.02 0.01 0.01 0.01 0.01 0.01 0.01 0.01 0.01 0.01 0.01 0.02 0.02 0.03 0.06 0.09 0.06 0.06 0.05 0.04 0.02 0.01 0.02 0.01 0.01 0.02 0.02 0.03 0.03 0.04
0.02 0.02 0.01 0.02 0.02 0.01 0.01 0.01 0.02 0.03 0.06 0.05 0.02 0.01 0.01 0.01 0.01 0.01 0.01 0.01 0.01 0.02 0.02 0.02 0.02 0.03 0.03 0.04 0.05 0.10 0.10 0.07 0.06 0.04 0.02 0.01 0.02 0.02 0.02 0.03 0.03 0.03 0.03 0.04
0.02 0.02 0.02 0.03 0.03 0.03 0.02 0.02 0.02 0.03 0.04 0.04 0.03 0.02 0.02 0.02 0.02 0.02 0.01 0.01 0.01 0.01 0.01 0.02 0.02 0.02 0.03 0.04 0.05 0.06 0.08 0.07 0.06 0.04 0.03 0.02 0.02 0.02 0.02 0.02 0.02 0.02 0.02 0.02
0.01 0.01 0.03 0.06 0.05 0.04 0.03 0.03 0.02 0.02 0.04 0.03 0.05 0.05 0.04 0.03 0.03 0.02 0.02 0.01 0.02 0.01 0.01 0.02 0.02 0.02 0.03 0.04 0.04 0.05 0.05 0.05 0.05 0.04 0.03 0.02 0.01 0.01 0.02 0.02 0.02 0.02 0.03 0.03
0.01 0.02 0.02 0.04 0.07 0.06 0.04 0.03 0.03 0.02 0.02 0.03 0.03 0.05 0.06 0.06 0.04 0.03 0.03 0.02 0.02 0.02 0.02 0.03 0.03 0.03 0.04 0.05 0.06 0.06 0.05 0.04 0.04 0.03 0.02 0.02 0.01 0.01 0.01 0.02 0.03 0.02 0.03 0.03
0.01 0.02 0.02 0.02 0.03 0.04 0.03 0.03 0.02 0.02 0.02 0.02 0.03 0.04 0.04 0.05 0.05 0.05 0.05 0.04 0.04 0.04 0.04 0.03 0.03 0.03 0.04 0.05 0.04 0.04 0.03 0.03 0.02 0.02 0.02 0.02 0.02 0.02 0.02 0.03 0.03 0.02 0.02 0.02
0.01 0.02 0.02 0.03 0.03 0.03 0.03 0.03 0.03 0.03 0.03 0.03 0.04 0.05 0.04 0.05 0.05 0.05 0.06 0.06 0.06 0.05 0.03 0.03 0.03 0.03 0.03 0.04 0.03 0.02 0.02 0.02 0.02 0.02 0.02 0.02 0.03 0.03 0.02 0.02 0.02 0.02 0.03 0.03
0.02 0.02 0.03 0.03 0.02 0.03 0.04 0.04 0.03 0.04 0.04 0.05 0.06 0.06 0.07 0.07 0.06 0.05 0.06 0.06 0.06 0.04 0.03 0.03 0.02 0.02 0.02 0.03 0.02 0.01 0.01 0.01 0.02 0.02 0.02 0.02 0.02 0.04 0.04 0.04 0.04 0.03 0.04 0.05
0.03 0.02 0.02 0.03 0.03 0.03 0.03 0.04 0.04 0.05 0.06 0.06 0.07 0.07 0.07 0.08 0.06 0.05 0.04 0.04 0.04 0.03 0.02 0.02 0.02 0.01 0.02 0.03 0.03 0.02 0.01 0.01 0.02 0.02 0.02 0.02 0.03 0.03 0.04 0.04 0.04 0.05 0.05 0.05
0.03 0.03 0.04 0.04 0.04 0.03 0.04 0.04 0.05 0.05 0.06 0.06 0.05 0.05 0.05 0.04 0.03 0.02 0.02 0.02 0.01 0.02 0.02 0.01 0.01 0.01 0.01 0.02 0.02 0.02 0.02 0.02 0.02 0.02 0.02 0.03 0.03 0.03 0.03 0.04 0.04 0.05 0.05 0.06
0.03 0.03 0.03 0.04 0.04 0.04 0.04 0.04 0.04 0.03 0.04 0.05 0.04 0.04 0.04 0.03 0.02 0.02 0.02 0.02 0.01 0.01 0.01 0.01 0.02 0.02 0.02 0.02 0.03 0.02 0.02 0.02 0.02 0.03 0.03 0.03 0.03 0.04 0.04 0.05 0.05 0.05 0.05 0.05
0.03 0.04 0.04 0.05 0.05 0.04 0.04 0.04 0.05 0.04 0.04 0.03 0.03 0.03 0.03 0.03 0.02 0.01 0.01 0.01 0.01 0.01 0.01 0.02 0.02 0.03 0.03 0.03 0.03 0.03 0.02 0.01 0.01 0.02 0.03 0.04 0.04 0.04 0.03 0.03 0.04 0.04 0.04 0.04
0.03 0.03 0.04 0.04 0.04 0.05 0.05 0.06 0.06 0.05 0.03 0.03 0.03 0.02 0.02 0.02 0.02 0.02 0.01 0.01 0.01 0.01 0.02 0.02 0.02 0.02 0.03 0.03 0.03 0.02 0.01 0.01 0.02 0.02 0.03 0.04 0.04 0.04 0.04 0.04 0.04 0.03 0.03 0.03
MSLP
1007.49 1007.02 1006.54 1006.07 1005.63 1005.22 1004.84 1004.47 1004.11 1003.77 1003.47 1003.24 1003.11 1003.13 1003.31 1003.66 1004.16 1004.79 1005.48 1006.19 1006.86 1007.44 1007.92 1008.30 1008.60 1008.86 1009.10 1009.38 1009.71 1010.10 1010.53 1011.00 1011.47 1011.92 1012.31 1012.65 1012.93 1013.17 1013.40 1013.63 1013.89 1014.17 1014.47 1014.78
1007.85 1007.36 1006.80 1006.21 1005.61 1005.01 1004.45 1003.92 1003.43 1003.01 1002.67 1002.45 1002.36 1002.42 1002.66 1003.05 1003.59 1004.24 1004.95 1005.67 1006.37 1007.00 1007.55 1008.02 1008.42 1008.77 1009.11 1009.46 1009.83 1010.24 1010.68 1011.12 1011.56 1011.97 1012.33 1012.64 1012.91 1013.14 1013.36 1013.58 1013.81 1014.07 1014.34 1014.62
1008.26 1007.78 1007.19 1006.52 1005.80 1005.06 1004.33 1003.66 1003.04 1002.53 1002.12 1001.86 1001.76 1001.82 1002.06 1002.45 1002.99 1003.63 1004.33 1005.07 1005.79 1006.47 1007.09 1007.65 1008.15 1008.60 1009.03 1009.45 1009.88 1010.31 1010.74 1011.16 1011.57 1011.94 1012.27 1012.56 1012.81 1013.04 1013.26 1013.48 1013.72 1013.97 1014.23 1014.50
1008.79 1008.32 1007.72 1006.99 1006.17 1005.32 1004.46 1003.64 1002.91 1002.28 1001.78 1001.45 1001.29 1001.32 1001.52 1001.88 1002.38 1002.99 1003.68 1004.41 1005.16 1005.88 1006.56 1007.20 1007.79 1008.34 1008.86 1009.34 1009.81 1010.25 1010.68 1011.08 1011.45 1011.78 1012.09 1012.36 1012.61 1012.85 1013.09 1013.34 1013.60 1013.87 1014.15 1014.43
1009.41 1008.95 1008.32 1007.55 1006.65 1005.70 1004.72 1003.78 1002.92 1002.18 1001.58 1001.16 1000.93 1000.89 1001.03 1001.33 1001.79 1002.36 1003.03 1003.75 1004.50 1005.26 1006.00 1006.70 1007.37 1007.99 1008.57 1009.11 1009.61 1010.06 1010.48 1010.86 1011.20 1011.51 1011.80 1012.07 1012.33 1012.60 1012.88 1013.17 1013.47 1013.79 1014.11 1014.41
1010.07 1009.60 1008.94 1008.10 1007.14 1006.09 1005.01 1003.96 1002.99 1002.14 1001.44 1000.93 1000.63 1000.51 1000.59 1000.84 1001.25 1001.78 1002.42 1003.12 1003.88 1004.65 1005.42 1006.17 1006.89 1007.57 1008.19 1008.77 1009.28 1009.75 1010.16 1010.52 1010.85 1011.15 1011.44 1011.72 1012.01 1012.32 1012.64 1012.99 1013.36 1013.73 1014.10 1014.45
1010.69 1010.18 1009.47 1008.57 1007.54 1006.40 1005.24 1004.10 1003.03 1002.10 1001.33 1000.74 1000.37 1000.20 1000.22 1000.42 1000.78 1001.28 1001.88 1002.56 1003.30 1004.07 1004.85 1005.63 1006.37 1007.08 1007.73 1008.33 1008.86 1009.33 1009.75 1010.11 1010.45 1010.76 1011.06 1011.37 1011.69 1012.05 1012.43 1012.84 1013.26 1013.70 1014.12 1014.52
1011.18 1010.62 1009.85 1008.89 1007.79 1006.60 1005.37 1004.17 1003.05 1002.06 1001.23 1000.60 1000.18 999.97 999.95 1000.11 1000.43 1000.88 1001.44 1002.09 1002.80 1003.55 1004.32 1005.08 1005.83 1006.54 1007.21 1007.82 1008.37 1008.86 1009.29 1009.68 1010.04 1010.38 1010.71 1011.06 1011.43 1011.84 1012.27 1012.73 1013.20 1013.68 1014.15 1014.59
1011.47 1010.85 1010.04 1009.04 1007.91 1006.69 1005.43 1004.21 1003.07 1002.06 1001.21 1000.56 1000.12 999.87 999.82 999.94 1000.22 1000.62 1001.14 1001.73 1002.39 1003.10 1003.83 1004.56 1005.28 1005.99 1006.65 1007.27 1007.84 1008.37 1008.84 1009.27 1009.68 1010.06 1010.45 1010.85 1011.26 1011.70 1012.17 1012.66 1013.16 1013.67 1014.16 1014.61
1011.52 1010.88 1010.05 1009.05 1007.93 1006.72 1005.48 1004.28 1003.17 1002.17 1001.34 1000.70 1000.25 999.99 999.91 999.99 1000.21 1000.55 1001.00 1001.52 1002.11 1002.75 1003.41 1004.09 1004.78 1005.45 1006.11 1006.74 1007.34 1007.90 1008.42 1008.92 1009.38 1009.84 1010.28 1010.72 1011.18 1011.65 1012.13 1012.63 1013.13 1013.63 1014.11 1014.56
1011.34 1010.71 1009.91 1008.97 1007.90 1006.76 1005.60 1004.48 1003.43 1002.49 1001.70 1001.08 1000.64 1000.37 1000.25 1000.29 1000.45 1000.72 1001.07 1001.51 1002.00 1002.54 1003.12 1003.73 1004.35 1004.99 1005.63 1006.27 1006.89 1007.49 1008.08 1008.63 1009.17 1009.69 1010.19 1010.68 1011.16 1011.64 1012.12 1012.60 1013.07 1013.53 1013.98 1014.40
1010.96 1010.40 1009.68 1008.84 1007.89 1006.88 1005.85 1004.85 1003.90 1003.06 1002.34 1001.76 1001.34 1001.05 1000.90 1000.88 1000.96 1001.14 1001.40 1001.72 1002.10 1002.53 1003.01 1003.52 1004.08 1004.66 1005.27 1005.90 1006.53 1007.17 1007.80 1008.42 1009.02 1009.60 1010.15 1010.67 1011.17 1011.64 1012.10 1012.54 1012.96 1013.37 1013.77 1014.14
1010.43 1009.97 1009.39 1008.70 1007.92 1007.08 1006.23 1005.39 1004.59 1003.86 1003.23 1002.71 1002.31 1002.01 1001.83 1001.75 1001.75 1001.83 1001.97 1002.18 1002.44 1002.75 1003.11 1003.53 1003.99 1004.50 1005.06 1005.66 1006.29 1006.94 1007.60 1008.26 1008.90 1009.52 1010.10 1010.64 1011.14 1011.60 1012.03 1012.42 1012.79 1013.14 1013.48 1013.81
1009.78 1009.46 1009.05 1008.54 1007.97 1007.34 1006.69 1006.03 1005.40 1004.82 1004.29 1003.84 1003.47 1003.17 1002.96 1002.82 1002.74 1002.73 1002.77 1002.86 1003.00 1003.20 1003.45 1003.75 1004.12 1004.54 1005.03 1005.57 1006.16 1006.79 1007.45 1008.11 1008.77 1009.40 1009.99 1010.54 1011.04 1011.48 1011.87 1012.23 1012.55 1012.85 1013.13 1013.42
1009.05 1008.88 1008.64 1008.34 1007.98 1007.58 1007.14 1006.69 1006.24 1005.80 1005.39 1005.02 1004.69 1004.41 1004.18 1004.00 1003.86 1003.77 1003.73 1003.72 1003.76 1003.85 1003.99 1004.19 1004.44 1004.77 1005.16 1005.62 1006.14 1006.71 1007.32 1007.95 1008.59 1009.21 1009.79 1010.33 1010.82 1011.25 1011.62 1011.95 1012.24 1012.51 1012.76 1013.02
1008.28 1008.24 1008.17 1008.06 1007.91 1007.72 1007.50 1007.24 1006.97 1006.68 1006.39 1006.10 1005.83 1005.58 1005.35 1005.15 1004.98 1004.85 1004.74 1004.67 1004.63 1004.63 1004.68 1004.77 1004.92 1005.14 1005.42 1005.77 1006.19 1006.68 1007.21 1007.77 1008.36 1008.94 1009.50 1010.02 1010.50 1010.92 1011.29 1011.61 1011.89 1012.15 1012.40 1012.65
1007.50 1007.57 1007.64 1007.69 1007.73 1007.73 1007.69 1007.62 1007.50 1007.35 1007.18 1006.98 1006.77 1006.56 1006.35 1006.16 1005.99 1005.83 1005.70 1005.59 1005.51 1005.45 1005.42 1005.43 1005.48 1005.59 1005.76 1005.99 1006.30 1006.67 1007.10 1007.58 1008.09 1008.61 1009.14 1009.64 1010.10 1010.53 1010.90 1011.23 1011.53 1011.80 1012.06 1012.32
1006.78 1006.93 1007.10 1007.29 1007.46 1007.61 1007.72 1007.79 1007.81 1007.78 1007.70 1007.58 1007.44 1007.28 1007.11 1006.94 1006.79 1006.64 1006.51 1006.39 1006.29 1006.20 1006.13 1006.08 1006.06 1006.07 1006.13 1006.26 1006.44 1006.70 1007.02 1007.40 1007.82 1008.28 1008.76 1009.23 1009.69 1010.12 1010.51 1010.87 1011.19 1011.49 1011.78 1012.05
1006.23 1006.42 1006.65 1006.92 1007.18 1007.44 1007.65 1007.82 1007.94 1007.99 1007.98 1007.93 1007.84 1007.72 1007.59 1007.46 1007.33 1007.21 1007.11 1007.01 1006.91 1006.82 1006.73 1006.65 1006.58 1006.53 1006.52 1006.55 1006.63 1006.78 1007.00 1007.28 1007.63 1008.02 1008.45 1008.90 1009.34 1009.78 1010.19 1010.57 1010.92 1011.25 1011.56 1011.86
1005.93 1006.14 1006.40 1006.70 1007.02 1007.33 1007.60 1007.83 1007.99 1008.09 1008.12 1008.11 1008.04 1007.96 1007.85 1007.75 1007.66 1007.57 1007.49 1007.42 1007.36 1007.29 1007.21 1007.13 1007.04 1006.96 1006.90 1006.87 1006.89 1006.96 1007.10 1007.31 1007.58 1007.91 1008.29 1008.71 1009.14 1009.57 1009.99 1010.38 1010.76 1011.10 1011.43 1011.73
1005.97 1006.17 1006.44 1006.75 1007.08 1007.40 1007.69 1007.92 1008.10 1008.20 1008.25 1008.23 1008.17 1008.09 1008.00 1007.91 1007.83 1007.77 1007.72 1007.69 1007.66 1007.62 1007.58 1007.52 1007.45 1007.38 1007.31 1007.26 1007.24 1007.27 1007.36 1007.51 1007.73 1008.01 1008.35 1008.72 1009.13 1009.54 1009.95 1010.34 1010.71 1011.06 1011.38 1011.68
1006.36 1006.54 1006.80 1007.10 1007.41 1007.72 1007.99 1008.21 1008.36 1008.44 1008.46 1008.42 1008.34 1008.23 1008.13 1008.03 1007.95 1007.90 1007.87 1007.87 1007.88 1007.88 1007.89 1007.87 1007.85 1007.81 1007.77 1007.73 1007.72 1007.73 1007.80 1007.92 1008.10 1008.34 1008.63 1008.97 1009.33 1009.71 1010.09 1010.46 1010.81 1011.14 1011.44 1011.71
1007.04 1007.22 1007.45 1007.73 1008.02 1008.29 1008.53 1008.70 1008.81 1008.85 1008.81 1008.73 1008.60 1008.46 1008.32 1008.19 1008.10 1008.04 1008.02 1008.04 1008.07 1008.13 1008.18 1008.22 1008.26 1008.28 1008.29 1008.29 1008.31 1008.34 1008.41 1008.52 1008.67 1008.88 1009.13 1009.42 1009.73 1010.06 1010.39 1010.72 1011.03 1011.31 1011.58 1011.82
1007.91 1008.08 1008.30 1008.55 1008.81 1009.05 1009.23 1009.36 1009.41 1009.39 1009.30 1009.16 1008.98 1008.78 1008.59 1008.43 1008.31 1008.23 1008.21 1008.23 1008.30 1008.39 1008.49 1008.59 1008.69 1008.78 1008.85 1008.92 1008.98 1009.05 1009.13 1009.24 1009.38 1009.55 1009.76 1010.00 1010.25 1010.52 1010.80 1011.07 1011.32 1011.56 1011.78 1011.99
1008.80 1008.97 1009.18 1009.41 1009.64 1009.84 1009.98 1010.05 1010.05 1009.98 1009.84 1009.64 1009.41 1009.16 1008.93 1008.73 1008.57 1008.47 1008.44 1008.47 1008.55 1008.67 1008.81 1008.97 1009.13 1009.28 1009.42 1009.55 1009.66 1009.77 1009.87 1009.99 1010.12 1010.26 1010.43 1010.62 1010.81 1011.02 1011.24 1011.45 1011.65 1011.85 1012.03 1012.19
1009.55 1009.72 1009.93 1010.14 1010.34 1010.50 1010.61 1010.64 1010.60 1010.48 1010.30 1010.06 1009.79 1009.51 1009.24 1009.01 1008.83 1008.72 1008.68 1008.70 1008.79 1008.93 1009.11 1009.32 1009.53 1009.74 1009.93 1010.11 1010.27 1010.41 1010.54 1010.66 1010.78 1010.90 1011.03 1011.17 1011.32 1011.47 1011.63 1011.80 1011.96 1012.12 1012.27 1012.41
1010.04 1010.21 1010.40 1010.60 1010.77 1010.90 1010.97 1010.98 1010.91 1010.77 1010.56 1010.31 1010.02 1009.72 1009.45 1009.20 1009.02 1008.89 1008.85 1008.88 1008.98 1009.13 1009.34 1009.57 1009.82 1010.07 1010.30 1010.52 1010.71 1010.88 1011.02 1011.15 1011.26 1011.36 1011.47 1011.57 1011.68 1011.80 1011.93 1012.06 1012.19 1012.33 1012.47 1012.60
Thickness
5816 5827 5833 5832 5834 5836 5831 5828 5820 5823 5823 5826 5830 5828 5826 5826 5824 5822 5818 5816 5813 5809 5806 5804 5802 5800 5799 5797 5795 5792 5787 5783 5780 5777 5775 5772 5769 5767 5764 5760 5758 5755 5752 5750
5803 5819 5825 5822 5829 5830 5830 5831 5828 5827 5823 5838 5838 5832 5824 5820 5815 5811 5811 5809 5806 5804 5800 5797 5795 5794 5792 5790 5788 5786 5781 5777 5775 5772 5769 5765 5763 5761 5757 5754 5751 5749 5746 5743
5784 5807 5809 5800 5817 5821 5821 5829 5827 5815 5820 5830 5821 5817 5814 5811 5806 5805 5804 5802 5799 5797 5794 5792 5790 5788 5785 5784 5782 5778 5774 5771 5768 5765 5761 5758 5756 5753 5749 5746 5744 5741 5739 5736
5778 5781 5764 5799 5831 5830 5822 5821 5827 5825 5824 5822 5818 5818 5815 5809 5799 5797 5798 5795 5794 5792 5789 5788 5786 5783 5780 5778 5774 5770 5767 5764 5761 5758 5754 5752 5748 5745 5742 5740 5737 5734 5732 5730
5766 5764 5771 5798 5815 5817 5809 5804 5819 5816 5816 5816 5817 5810 5802 5803 5798 5795 5793 5790 5789 5787 5785 5781 5778 5776 5772 5769 5766 5762 5759 5756 5754 5751 5747 5744 5740 5737 5735 5733 5730 5727 5725 5722
5760 5753 5751 5775 5804 5816 5806 5782 5804 5802 5801 5802 5801 5783 5781 5793 5792 5789 5787 5784 5781 5779 5777 5773 5770 5768 5763 5759 5757 5753 5750 5749 5747 5744 5740 5736 5734 5731 5729 5726 5723 5721 5718 5715
5750 5747 5758 5782 5798 5799 5767 5763 5787 5792 5791 5791 5785 5783 5785 5785 5782 5779 5778 5776 5774 5770 5766 5763 5762 5758 5752 5750 5746 5745 5743 5741 5738 5736 5733 5730 5727 5724 5720 5717 5715 5712 5709 5707
5744 5735 5742 5776 5782 5766 5760 5774 5779 5780 5781 5779 5779 5781 5780 5776 5772 5770 5768 5766 5764 5759 5756 5754 5752 5747 5742 5739 5739 5738 5736 5732 5729 5727 5725 5723 5718 5715 5712 5709 5706 5704 5701 5699
5741 5739 5754 5765 5764 5766 5770 5766 5768 5769 5772 5771 5768 5768 5767 5766 5762 5760 5758 5756 5754 5750 5746 5744 5742 5738 5732 5730 5730 5728 5726 5723 5721 5719 5716 5713 5709 5706 5703 5701 5698 5696 5694 5691
5735 5741 5748 5752 5756 5758 5761 5760 5762 5763 5763 5763 5759 5758 5755 5753 5752 5750 5749 5746 5744 5740 5735 5732 5731 5729 5726 5724 5722 5719 5716 5713 5712 5709 5707 5704 5701 5698 5694 5692 5690 5687 5684 5682
5724 5732 5735 5740 5742 5744 5747 5752 5753 5753 5753 5752 5749 5746 5744 5742 5741 5740 5739 5737 5734 5729 5725 5722 5721 5719 5717 5715 5712 5709 5706 5704 5703 5701 5698 5694 5691 5688 5686 5683 5681 5678 5676 5673
5712 5722 5722 5724 5732 5735 5735 5737 5740 5739 5739 5740 5739 5736 5734 5732 5732 5730 5728 5726 5723 5719 5716 5714 5712 5709 5707 5706 5703 5699 5696 5695 5693 5692 5690 5687 5683 5680 5677 5675 5672 5670 5667 5663
5716 5721 5721 5721 5724 5726 5725 5726 5729 5729 5729 5728 5728 5727 5725 5723 5722 5720 5718 5715 5711 5709 5707 5705 5702 5699 5698 5697 5694 5691 5688 5686 5685 5684 5682 5679 5676 5673 5669 5665 5662 5660 5658 5655
5712 5711 5708 5710 5712 5714 5715 5718 5719 5720 5720 5719 5718 5716 5715 5713 5711 5709 5706 5705 5703 5701 5698 5695 5693 5690 5690 5689 5686 5683 5681 5679 5677 5675 5674 5672 5670 5667 5664 5660 5656 5653 5649 5646
5702 5702 5700 5703 5704 5704 5705 5706 5705 5706 5706 5706 5706 5705 5703 5701 5698 5697 5697 5696 5694 5691 5689 5686 5683 5681 5681 5680 5677 5675 5672 5670 5668 5667 5666 5664 5663 5660 5658 5654 5650 5647 5643 5639
5692 5694 5694 5693 5693 5694 5695 5694 5693 5694 5694 5694 5694 5694 5694 5692 5690 5688 5687 5685 5682 5679 5678 5676 5673 5673 5672 5670 5668 5666 5663 5661 5659 5658 5657 5656 5654 5651 5649 5646 5642 5639 5635 5632
5679 5679 5680 5681 5683 5683 5684 5685 5684 5685 5685 5684 5683 5684 5684 5682 5679 5677 5675 5674 5672 5670 5669 5667 5665 5664 5663 5661 5658 5657 5655 5653 5650 5648 5648 5646 5644 5642 5640 5637 5634 5631 5627 5624
5676 5676 5676 5675 5675 5674 5675 5676 5676 5675 5674 5674 5674 5673 5671 5669 5667 5665 5664 5664 5662 5660 5659 5658 5656 5654 5653 5652 5650 5648 5647 5645 5642 5641 5639 5637 5635 5633 5632 5629 5626 5623 5620 5617
5670 5669 5670 5670 5670 5667 5666 5666 5666 5666 5666 5665 5662 5660 5660 5658 5657 5656 5655 5653 5651 5648 5648 5648 5646 5646 5644 5643 5641 5640 5639 5637 5635 5632 5631 5628 5627 5625 5623 5621 5619 5617 5614 5610
5662 5663 5662 5662 5662 5660 5658 5658 5659 5658 5658 5656 5653 5651 5649 5649 5648 5647 5645 5643 5642 5641 5641 5640 5639 5638 5636 5635 5633 5633 5631 5629 5627 5625 5623 5622 5620 5617 5616 5614 5612 5610 5607 5603
5653 5654 5654 5653 5652 5653 5651 5651 5650 5650 5649 5648 5645 5642 5642 5641 5641 5639 5637 5634 5634 5633 5633 5632 5631 5630 5629 5626 5625 5626 5624 5621 5620 5618 5616 5615 5613 5610 5609 5607 5605 5602 5599 5596
5644 5645 5645 5645 5645 5644 5644 5644 5644 5643 5641 5640 5638 5636 5635 5634 5634 5632 5631 5629 5628 5625 5626 5625 5624 5621 5620 5618 5620 5619 5617 5615 5613 5612 5610 5608 5607 5604 5602 5599 5597 5595 5591 5589
5637 5637 5637 5637 5637 5636 5637 5637 5637 5636 5634 5632 5631 5630 5629 5628 5628 5626 5623 5623 5623 5619 5619 5617 5614 5612 5610 5612 5613 5612 5610 5608 5607 5605 5603 5602 5601 5599 5596 5593 5590 5587 5585 5582
5629 5629 5629 5630 5630 5629 5628 5630 5631 5630 5629 5628 5627 5626 5625 5624 5622 5622 5619 5616 5614 5612 5612 5609 5606 5605 5604 5606 5605 5605 5604 5602 5601 5600 5599 5597 5596 5593 5590 5587 5584 5581 5578 5575
5623 5623 5624 5624 5623 5623 5624 5625 5625 5625 5625 5624 5623 5622 5622 5620 5617 5616 5614 5612 5609 5607 5606 5604 5601 5599 5599 5600 5599 5598 5597 5595 5595 5593 5592 5590 5588 5586 5583 5581 5578 5575 5572 5568
5618 5618 5618 5618 5619 5619 5620 5620 5620 5620 5620 5619 5619 5618 5617 5615 5613 5611 5609 5607 5605 5601 5601 5599 5598 5595 5595 5594 5593 5592 5591 5589 5588 5587 5585 5583 5581 5579 5577 5574 5571 5568 5565 5562
5616 5616 5615 5616 5616 5616 5616 5615 5615 5614 5614 5613 5612 5611 5611 5610 5608 5606 5604 5602 5600 5598 5597 5595 5593 5592 5590 5589 5587 5586 5584 5583 5582 5580 5579 5577 5575 5573 5570 5567 5565 5562 5559 5556